Lid_Strength_Index
2 1 0 1 2 1 1 2 2 1 2 1 2 1 0 0 0 -0 0 -1 -1 -1 -1 -2 -2 -2 -2 -2 -1 -1 -0 -1 -2 -1 -1 -1 -1 -1 -1 -1 -1 -2 -2
2 1 2 2 2 2 1 1 2 2 2 2 2 1 0 0 0 0 0 0 -1 -1 -1 -1 -2 -2 -2 -1 -1 -0 -0 -1 -1 -1 -1 -1 -1 -0 -0 -1 -1 -2 -1
1 1 2 2 2 2 2 1 1 1 2 2 2 1 0 0 0 0 0 1 -0 -1 -1 -1 -1 -2 -2 -1 -1 -1 -1 -1 -1 -1 -0 -0 -1 -1 -1 -1 -1 -1 -0
1 2 2 2 1 2 2 2 2 2 2 2 2 1 1 1 0 0 0 1 1 -0 -1 -1 -1 -2 -2 -1 -1 -1 -2 -1 -1 -0 -0 0 -0 -1 -1 -1 -1 -0 -0
1 2 1 2 2 2 2 2 2 2 2 3 2 2 2 2 1 0 0 1 0 0 -0 -1 -1 -1 -1 -2 -2 -2 -2 -1 -1 -0 -0 0 0 -1 -0 -0 -0 -0 -0
1 2 2 2 2 3 2 2 2 1 2 2 1 2 3 2 0 1 0 0 0 0 0 -0 -0 -1 -1 -1 -2 -2 -2 -1 -0 0 -0 -0 -0 -1 -1 -1 -0 -0 1
2 2 2 2 2 2 2 2 2 2 3 3 3 4 3 2 1 1 1 0 1 0 0 0 -0 -1 -1 -1 -1 -2 -2 -1 -1 -0 -0 0 -1 -1 -1 -0 -1 0 1
1 2 2 2 2 2 2 2 2 3 3 3 4 4 6 4 2 1 1 1 1 1 0 0 0 -0 0 -0 -1 -1 -2 -1 -1 -1 0 -1 -2 -1 -1 -1 -0 0 1
0 1 1 2 2 2 2 3 2 3 4 3 2 3 6 7 4 2 2 1 2 1 1 1 1 0 0 0 -0 -1 -1 -1 -2 -1 -1 -1 -1 -1 -1 -1 -0 1 1
1 1 1 2 2 2 2 2 2 3 3 3 2 1 2 3 6 6 2 2 1 1 1 1 0 0 0 0 -0 -1 -1 -1 -2 -1 -1 -1 -1 -0 -0 -0 0 1 1
1 1 1 2 2 2 2 2 2 2 2 2 2 3 3 4 3 4 6 4 2 1 1 1 0 1 0 0 0 -0 -0 -1 -1 -1 -1 -1 -1 -1 -0 0 0 0 1
2 1 1 2 2 2 2 3 3 2 3 2 2 3 3 4 4 4 5 4 4 2 1 0 1 0 0 0 -1 -0 0 1 1 0 -0 -1 -1 -0 -0 0 0 1 1
3 3 2 2 2 2 2 2 2 1 2 2 2 3 3 2 2 2 3 4 4 3 2 1 1 0 0 0 -0 -0 0 2 2 2 1 1 -0 -0 -1 -0 -0 -1 -1
3 2 2 2 2 1 2 2 2 2 1 2 3 3 3 2 1 2 3 4 5 4 3 3 1 0 0 0 0 0 1 2 3 3 2 2 1 1 0 -0 -1 -2 -2
2 2 2 2 2 2 2 2 2 2 2 2 2 2 2 2 2 1 1 2 4 6 5 3 3 1 0 0 0 1 2 2 2 2 3 2 2 2 1 1 -1 -1 -1
2 2 2 2 2 2 2 1 1 2 2 2 1 2 2 2 2 2 1 2 2 3 5 3 2 1 1 1 0 2 2 2 2 3 2 2 3 1 0 0 0 -0 -1
2 2 2 2 2 2 2 2 2 2 2 2 2 2 2 2 2 2 1 1 2 2 4 3 2 1 1 2 1 2 2 2 2 3 1 1 2 2 1 1 1 1 0
2 2 2 2 2 2 2 2 2 2 2 2 2 1 2 1 2 2 1 2 2 2 2 4 2 2 2 2 2 2 1 1 2 0 1 1 2 2 2 2 3 2 2
2 1 1 2 1 1 1 2 1 2 2 2 2 1 2 1 2 2 2 2 2 2 2 3 3 2 3 2 3 3 3 3 2 1 2 2 2 2 3 3 3 3 4
2 2 1 1 1 1 1 1 1 2 2 2 1 1 1 1 2 2 2 1 2 2 2 3 3 4 4 4 4 3 4 3 3 2 3 4 3 3 3 3 4 4 5
2 1 1 1 1 1 1 1 1 1 1 1 1 1 1 2 2 2 1 1 2 3 3 3 4 4 5 5 6 4 4 3 4 3 6 5 5 6 5 4 3 3 4
3 3 2 2 2 2 7 5 2 1 1 1 2 1 1 2 3 5 4 4 3 3 4 4 5 5 5 4 3 4 3 4 5 3 5 4 6 6 6 6 6 6 7
4 5 4 3 3 3 8 7 5 1 1 1 2 2 1 1 2 2 5 5 5 5 4 3 4 4 4 2 3 4 4 5 5 3 4 5 4 4 5 4 6 7 7
4 6 6 6 4 4 8 7 6 1 2 2 2 2 1 2 2 2 3 4 4 4 3 2 3 3 3 2 2 3 3 4 5 6 5 5 6 7 5 6 6 6 6
4 5 7 7 6 6 9 8 4 2 2 3 2 2 3 3 7 8 4 4 6 8 8 8 7 7 8 8 5 4 6 6 8 7 6 7 8 8 7 7 7 7 7
3 4 6 6 8 9 10 8 5 3 4 5 4 4 7 5 10 9 4 4 6 7 8 8 9 10 8 8 7 6 6 8 9 9 7 8 8 8 8 7 7 7 8